Location: Sungai Dangang
(2.7500°N, 113.8333°E)
Time: 19:20:29
(UTC+00:00)

SL-16 R/B - Pass Details

Date: 16 May 2021
Orbit: 842 x 847 km, 71.0° (Epoch: 20 June)

Event Time Altitude Azimuth Distance (km) Brightness Sun altitude
Rises 21:48:42 0° 190° (S) 3,401 5.1 -6.7°
Reaches altitude 10° 21:51:10 10° 187° (S) 2,465 4.4 -6.1°
Maximum altitude 21:56:46 67° 105° (ESE) 914 2.7 -4.8°
Drops below altitude 10° 22:02:23 10° 23° (NNE) 2,460 5.3 -3.5°
Sets 22:04:50 0° 21° (NNE) 3,393 6.0 -2.9°
